SWA3131 KBNA-KJAX

Flight info

Callsign SWA3131
Flight time 1h 8m
Altitude 33000
Route TIPPN4 DENST THRSR DUCHY OHDEA2
Aircraft B38M/M-SDE1FGHILORVWXY/HB1

Departure

Time 2026-05-07 04:22
Airport Nashville International Airport (KBNA)

Arrival

Time 2026-05-07 05:30
Airport Jacksonville International Airport (KJAX)
Time Latitude Longitude Altitude Speed Heading
2026-05-07 03:48 36.12750 -86.66895 575 ft 0 kts 330°
2026-05-07 04:08 36.12734 -86.66882 575 ft 4 kts 317°
2026-05-07 04:08 36.12719 -86.66856 572 ft 4 kts 283°
2026-05-07 04:08 36.12722 -86.66829 572 ft 4 kts 228°
2026-05-07 04:09 36.12739 -86.66809 571 ft 4 kts 223°
2026-05-07 04:09 36.12749 -86.66798 573 ft 2 kts 220°
2026-05-07 04:13 36.12748 -86.66799 571 ft 1 kts 220°
2026-05-07 04:13 36.12713 -86.66836 575 ft 10 kts 220°
2026-05-07 04:14 36.12654 -86.66890 574 ft 10 kts 201°
2026-05-07 04:14 36.12584 -86.66892 574 ft 11 kts 191°
2026-05-07 04:14 36.12515 -86.66932 576 ft 12 kts 208°
2026-05-07 04:14 36.12444 -86.66982 575 ft 12 kts 218°
2026-05-07 04:15 36.12433 -86.67065 579 ft 10 kts 297°
2026-05-07 04:15 36.12484 -86.67133 578 ft 12 kts 317°
2026-05-07 04:15 36.12547 -86.67211 580 ft 14 kts 313°
2026-05-07 04:15 36.12544 -86.67307 581 ft 12 kts 230°
2026-05-07 04:16 36.12480 -86.67392 580 ft 14 kts 227°
2026-05-07 04:16 36.12406 -86.67473 582 ft 14 kts 219°
2026-05-07 04:16 36.12325 -86.67553 582 ft 16 kts 217°
2026-05-07 04:16 36.12238 -86.67660 584 ft 18 kts 231°
2026-05-07 04:17 36.12161 -86.67781 582 ft 18 kts 212°
2026-05-07 04:17 36.12037 -86.67839 585 ft 21 kts 198°
2026-05-07 04:17 36.11898 -86.67896 582 ft 21 kts 198°
2026-05-07 04:17 36.11755 -86.67953 581 ft 23 kts 198°
2026-05-07 04:18 36.11603 -86.68016 582 ft 24 kts 199°
2026-05-07 04:18 36.11498 -86.68057 582 ft 25 kts 197°
2026-05-07 04:18 36.11331 -86.68124 583 ft 26 kts 199°
2026-05-07 04:18 36.11164 -86.68205 581 ft 27 kts 211°
2026-05-07 04:19 36.11011 -86.68352 578 ft 27 kts 217°
2026-05-07 04:19 36.10831 -86.68452 573 ft 29 kts 198°
2026-05-07 04:19 36.10636 -86.68530 574 ft 30 kts 198°
2026-05-07 04:19 36.10447 -86.68606 580 ft 25 kts 198°
2026-05-07 04:20 36.10343 -86.68658 584 ft 12 kts 224°
2026-05-07 04:20 36.10347 -86.68764 581 ft 14 kts 315°
2026-05-07 04:20 36.10424 -86.68762 580 ft 12 kts 16°
2026-05-07 04:21 36.10657 -86.68669 574 ft 71 kts 18°
2026-05-07 04:21 36.11359 -86.68391 580 ft 138 kts 18°
2026-05-07 04:21 36.12434 -86.67963 719 ft 177 kts 18°
2026-05-07 04:21 36.13588 -86.67459 1193 ft 179 kts 21°
2026-05-07 04:22 36.14744 -86.66741 1894 ft 190 kts 30°
2026-05-07 04:22 36.15832 -86.65720 2533 ft 207 kts 42°
2026-05-07 04:22 36.16850 -86.64324 2969 ft 227 kts 49°
2026-05-07 04:22 36.17878 -86.62766 3606 ft 240 kts 51°
2026-05-07 04:23 36.18932 -86.61113 4323 ft 249 kts 50°
2026-05-07 04:23 36.20040 -86.59387 4925 ft 264 kts 50°
2026-05-07 04:23 36.21218 -86.57542 5405 ft 281 kts 51°
2026-05-07 04:23 36.22072 -86.55351 6136 ft 289 kts 77°
2026-05-07 04:24 36.22090 -86.52827 6694 ft 301 kts 103°
2026-05-07 04:24 36.21502 -86.50310 6950 ft 306 kts 109°
2026-05-07 04:24 36.20876 -86.47788 7082 ft 308 kts 111°
2026-05-07 04:24 36.19815 -86.45541 7665 ft 297 kts 140°
2026-05-07 04:25 36.18164 -86.44089 8430 ft 291 kts 163°
2026-05-07 04:25 36.16257 -86.43529 9123 ft 281 kts 184°
2026-05-07 04:25 36.14277 -86.43481 9942 ft 283 kts 187°
2026-05-07 04:25 36.12330 -86.43485 10628 ft 286 kts 188°
2026-05-07 04:26 36.10280 -86.43531 10994 ft 304 kts 188°
2026-05-07 04:26 36.08114 -86.43600 11438 ft 318 kts 189°
2026-05-07 04:26 36.05889 -86.43684 12152 ft 320 kts 189°
2026-05-07 04:26 36.03657 -86.43778 12948 ft 323 kts 190°
2026-05-07 04:27 36.01404 -86.43879 13767 ft 325 kts 191°
2026-05-07 04:27 35.99133 -86.43983 14511 ft 328 kts 191°
2026-05-07 04:27 35.96850 -86.44088 15278 ft 329 kts 192°
2026-05-07 04:27 35.94550 -86.44195 16012 ft 332 kts 193°
2026-05-07 04:28 35.92234 -86.44302 16736 ft 334 kts 193°
2026-05-07 04:28 35.89902 -86.44410 17479 ft 336 kts 194°
2026-05-07 04:28 35.87552 -86.44518 18180 ft 339 kts 195°
2026-05-07 04:28 35.85188 -86.44626 18807 ft 341 kts 195°
2026-05-07 04:29 35.82805 -86.44735 19406 ft 344 kts 195°
2026-05-07 04:29 35.80407 -86.44845 19996 ft 346 kts 195°
2026-05-07 04:29 35.77995 -86.44956 20576 ft 348 kts 195°
2026-05-07 04:29 35.75567 -86.45068 21149 ft 351 kts 195°
2026-05-07 04:30 35.73118 -86.45181 21709 ft 353 kts 195°
2026-05-07 04:30 35.70657 -86.45294 22270 ft 355 kts 195°
2026-05-07 04:30 35.68178 -86.45407 22770 ft 358 kts 194°
2026-05-07 04:30 35.65674 -86.45522 23299 ft 361 kts 194°
2026-05-07 04:31 35.63158 -86.45638 23803 ft 363 kts 194°
2026-05-07 04:31 35.60621 -86.45751 24243 ft 367 kts 193°
2026-05-07 04:31 35.58013 -86.45345 24738 ft 389 kts 178°
2026-05-07 04:31 35.55398 -86.44513 25237 ft 389 kts 179°
2026-05-07 04:32 35.52756 -86.43707 25583 ft 393 kts 179°
2026-05-07 04:32 35.50098 -86.42878 26037 ft 395 kts 179°
2026-05-07 04:32 35.47426 -86.42035 26435 ft 398 kts 179°
2026-05-07 04:32 35.44741 -86.41184 26790 ft 400 kts 179°
2026-05-07 04:33 35.42041 -86.40329 27207 ft 401 kts 179°
2026-05-07 04:33 35.39348 -86.39256 27629 ft 420 kts 167°
2026-05-07 04:33 35.36833 -86.37251 28166 ft 444 kts 152°
2026-05-07 04:33 35.34495 -86.34742 28588 ft 447 kts 152°
2026-05-07 04:34 35.32139 -86.32235 28903 ft 451 kts 152°
2026-05-07 04:34 35.29778 -86.29698 29302 ft 453 kts 152°
2026-05-07 04:34 35.27409 -86.27140 29650 ft 455 kts 152°
2026-05-07 04:34 35.25030 -86.24570 30013 ft 457 kts 152°
2026-05-07 04:35 35.22641 -86.21990 30300 ft 459 kts 152°
2026-05-07 04:35 35.20237 -86.19396 30603 ft 461 kts 152°
2026-05-07 04:35 35.17823 -86.16794 30822 ft 463 kts 152°
2026-05-07 04:35 35.15412 -86.14193 31221 ft 462 kts 152°
2026-05-07 04:36 35.12997 -86.11595 31491 ft 464 kts 152°
2026-05-07 04:36 35.10596 -86.09012 31725 ft 467 kts 152°
2026-05-07 04:36 35.08154 -86.06388 32011 ft 469 kts 152°
2026-05-07 04:36 35.05699 -86.03752 32293 ft 471 kts 152°
2026-05-07 04:37 35.03243 -86.01116 32661 ft 470 kts 152°
2026-05-07 04:37 35.00786 -85.98484 32955 ft 471 kts 152°
2026-05-07 04:37 34.95861 -85.93208 32974 ft 470 kts 152°
2026-05-07 04:38 34.90959 -85.87969 32961 ft 469 kts 151°
2026-05-07 04:38 34.86087 -85.82769 32993 ft 464 kts 152°
2026-05-07 04:39 34.81233 -85.77597 32988 ft 464 kts 152°
2026-05-07 04:39 34.76416 -85.72328 32969 ft 469 kts 148°
2026-05-07 04:40 34.71709 -85.66842 32959 ft 469 kts 149°
2026-05-07 04:40 34.66989 -85.61391 32973 ft 469 kts 149°
2026-05-07 04:41 34.62262 -85.55943 32963 ft 467 kts 148°
2026-05-07 04:41 34.57551 -85.50525 32944 ft 466 kts 148°
2026-05-07 04:42 34.52839 -85.45114 32949 ft 467 kts 148°
2026-05-07 04:42 34.48130 -85.39714 32946 ft 467 kts 147°
2026-05-07 04:43 34.43404 -85.34306 32949 ft 467 kts 147°
2026-05-07 04:43 34.38710 -85.28942 32980 ft 467 kts 147°
2026-05-07 04:44 34.33972 -85.23535 32989 ft 470 kts 146°
2026-05-07 04:44 34.29214 -85.18116 32995 ft 470 kts 146°
2026-05-07 04:45 34.24423 -85.12668 32990 ft 469 kts 146°
2026-05-07 04:45 34.19697 -85.07301 32978 ft 469 kts 146°
2026-05-07 04:46 34.14935 -85.01903 32995 ft 472 kts 146°
2026-05-07 04:46 34.10112 -84.96447 32999 ft 476 kts 144°
2026-05-07 04:47 34.05260 -84.90964 33046 ft 480 kts 144°
2026-05-07 04:47 34.00397 -84.85479 33019 ft 479 kts 144°
2026-05-07 04:48 33.95526 -84.79994 33009 ft 479 kts 144°
2026-05-07 04:48 33.90658 -84.74521 32992 ft 479 kts 144°
2026-05-07 04:49 33.85786 -84.69052 32986 ft 479 kts 144°
2026-05-07 04:49 33.80906 -84.63585 32998 ft 482 kts 144°
2026-05-07 04:50 33.75977 -84.58071 33008 ft 485 kts 144°
2026-05-07 04:50 33.71044 -84.52559 32996 ft 484 kts 144°
2026-05-07 04:51 33.66109 -84.47054 32997 ft 484 kts 144°
2026-05-07 04:51 33.60991 -84.41921 32952 ft 471 kts 154°
2026-05-07 04:52 33.58286 -84.39696 33135 ft 473 kts 153°
2026-05-07 04:52 33.55566 -84.37444 33026 ft 475 kts 153°
2026-05-07 04:52 33.50124 -84.32961 33022 ft 476 kts 153°
2026-05-07 04:53 33.44660 -84.28470 33047 ft 476 kts 153°
2026-05-07 04:53 33.39196 -84.23985 33024 ft 476 kts 153°
2026-05-07 04:54 33.33728 -84.19505 33023 ft 476 kts 153°
2026-05-07 04:54 33.28259 -84.15031 33009 ft 476 kts 153°
2026-05-07 04:55 33.22787 -84.10561 33005 ft 476 kts 153°
2026-05-07 04:55 33.17314 -84.06097 33000 ft 476 kts 153°
2026-05-07 04:56 33.11844 -84.01642 32996 ft 476 kts 153°
2026-05-07 04:56 33.06370 -83.97191 33005 ft 476 kts 153°
2026-05-07 04:57 33.00896 -83.92747 32990 ft 476 kts 153°
2026-05-07 04:57 32.95412 -83.88302 33029 ft 477 kts 152°
2026-05-07 04:58 32.89928 -83.83863 33018 ft 476 kts 152°
2026-05-07 04:58 32.84445 -83.79432 33008 ft 476 kts 152°
2026-05-07 04:59 32.78958 -83.75004 33012 ft 476 kts 153°
2026-05-07 04:59 32.73476 -83.70587 33026 ft 476 kts 153°
2026-05-07 05:00 32.67998 -83.66180 33026 ft 475 kts 152°
2026-05-07 05:00 32.62528 -83.61786 33018 ft 474 kts 152°
2026-05-07 05:01 32.57098 -83.57431 33017 ft 474 kts 152°
2026-05-07 05:01 32.51628 -83.53051 33035 ft 474 kts 152°
2026-05-07 05:02 32.46153 -83.48672 33026 ft 475 kts 152°
2026-05-07 05:02 32.40670 -83.44293 33024 ft 477 kts 152°
2026-05-07 05:03 32.35163 -83.39903 33017 ft 477 kts 152°
2026-05-07 05:03 32.29726 -83.35572 33029 ft 458 kts 152°
2026-05-07 05:04 32.27127 -83.33506 32964 ft 443 kts 153°
2026-05-07 05:04 32.24595 -83.31494 32698 ft 435 kts 153°
2026-05-07 05:04 32.22092 -83.29507 32222 ft 433 kts 153°
2026-05-07 05:04 32.20439 -83.28195 31888 ft 432 kts 152°
2026-05-07 05:05 32.17952 -83.26222 31425 ft 430 kts 152°
2026-05-07 05:05 32.14647 -83.23602 30816 ft 426 kts 152°
2026-05-07 05:05 32.13022 -83.22315 30539 ft 424 kts 152°
2026-05-07 05:05 32.10578 -83.20380 30123 ft 422 kts 152°
2026-05-07 05:06 32.08148 -83.18458 29636 ft 419 kts 152°
2026-05-07 05:06 32.05734 -83.16549 29173 ft 417 kts 153°
2026-05-07 05:06 32.03337 -83.14655 28773 ft 413 kts 152°
2026-05-07 05:06 32.00964 -83.12781 28386 ft 409 kts 153°
2026-05-07 05:07 31.98599 -83.10916 27975 ft 412 kts 153°
2026-05-07 05:07 31.96207 -83.09029 27563 ft 416 kts 153°
2026-05-07 05:07 31.93799 -83.07131 27160 ft 417 kts 153°
2026-05-07 05:07 31.91391 -83.05235 26777 ft 416 kts 153°
2026-05-07 05:08 31.88993 -83.03346 26393 ft 414 kts 153°
2026-05-07 05:08 31.86606 -83.01468 25983 ft 412 kts 153°
2026-05-07 05:08 31.84232 -82.99601 25621 ft 410 kts 154°
2026-05-07 05:08 31.81866 -82.97742 25257 ft 408 kts 154°
2026-05-07 05:09 31.79512 -82.95893 24872 ft 406 kts 154°
2026-05-07 05:09 31.77170 -82.94054 24506 ft 404 kts 154°
2026-05-07 05:09 31.74840 -82.92226 24146 ft 402 kts 154°
2026-05-07 05:09 31.72641 -82.90193 23930 ft 406 kts 143°
2026-05-07 05:10 31.70547 -82.87964 23881 ft 407 kts 145°
2026-05-07 05:10 31.68418 -82.85772 23822 ft 407 kts 146°
2026-05-07 05:10 31.66283 -82.83597 23746 ft 406 kts 146°
2026-05-07 05:10 31.64142 -82.81433 23670 ft 406 kts 146°
2026-05-07 05:11 31.62001 -82.79274 23615 ft 405 kts 146°
2026-05-07 05:11 31.59864 -82.77121 23523 ft 405 kts 146°
2026-05-07 05:11 31.57730 -82.74975 23440 ft 403 kts 146°
2026-05-07 05:11 31.55607 -82.72841 23383 ft 401 kts 146°
2026-05-07 05:12 31.53491 -82.70715 23314 ft 400 kts 146°
2026-05-07 05:12 31.51378 -82.68593 23237 ft 399 kts 146°
2026-05-07 05:12 31.49270 -82.66478 23153 ft 399 kts 146°
2026-05-07 05:12 31.47164 -82.64366 23079 ft 398 kts 146°
2026-05-07 05:13 31.45050 -82.62283 22955 ft 394 kts 150°
2026-05-07 05:13 31.42825 -82.60419 22427 ft 395 kts 152°
2026-05-07 05:13 31.40586 -82.58543 21908 ft 397 kts 151°
2026-05-07 05:13 31.38349 -82.56650 21407 ft 398 kts 151°
2026-05-07 05:14 31.36107 -82.54743 20896 ft 399 kts 151°
2026-05-07 05:14 31.33856 -82.52826 20373 ft 401 kts 150°
2026-05-07 05:14 31.31597 -82.50901 19855 ft 403 kts 150°
2026-05-07 05:14 31.29327 -82.48968 19318 ft 405 kts 150°
2026-05-07 05:15 31.27046 -82.47026 18800 ft 406 kts 150°
2026-05-07 05:15 31.24757 -82.45080 18266 ft 408 kts 149°
2026-05-07 05:15 31.22460 -82.43128 17674 ft 409 kts 149°
2026-05-07 05:15 31.20160 -82.41174 17125 ft 409 kts 149°
2026-05-07 05:16 31.17860 -82.39220 16611 ft 408 kts 149°
2026-05-07 05:16 31.15568 -82.37276 16028 ft 408 kts 149°
2026-05-07 05:16 31.13278 -82.35334 15580 ft 405 kts 149°
2026-05-07 05:16 31.10989 -82.33396 14993 ft 407 kts 149°
2026-05-07 05:17 31.08710 -82.31466 14508 ft 405 kts 148°
2026-05-07 05:17 31.06422 -82.29528 13932 ft 407 kts 148°
2026-05-07 05:17 31.04091 -82.27689 13372 ft 404 kts 151°
2026-05-07 05:17 31.01745 -82.25902 12844 ft 402 kts 151°
2026-05-07 05:18 30.99418 -82.24116 12340 ft 399 kts 150°
2026-05-07 05:18 30.97143 -82.22276 11701 ft 401 kts 148°
2026-05-07 05:18 30.94897 -82.20343 10727 ft 413 kts 147°
2026-05-07 05:18 30.92597 -82.18349 10272 ft 408 kts 147°
2026-05-07 05:19 30.90342 -82.16395 9897 ft 401 kts 147°
2026-05-07 05:19 30.88119 -82.14469 9132 ft 402 kts 147°
2026-05-07 05:19 30.85880 -82.12527 8325 ft 396 kts 147°
2026-05-07 05:19 30.83703 -82.10639 7524 ft 385 kts 147°
2026-05-07 05:20 30.81583 -82.08800 6809 ft 375 kts 147°
2026-05-07 05:20 30.79524 -82.07015 6102 ft 364 kts 147°
2026-05-07 05:20 30.77444 -82.05458 5567 ft 344 kts 158°
2026-05-07 05:20 30.75336 -82.04427 5545 ft 314 kts 161°
2026-05-07 05:21 30.73399 -82.03483 5489 ft 290 kts 161°
2026-05-07 05:21 30.69935 -82.01774 5374 ft 255 kts 161°
2026-05-07 05:21 30.68343 -82.00984 5314 ft 242 kts 161°
2026-05-07 05:22 30.66824 -82.00229 5247 ft 236 kts 161°
2026-05-07 05:22 30.65278 -81.99460 5207 ft 248 kts 161°
2026-05-07 05:22 30.63672 -81.98660 5153 ft 254 kts 161°
2026-05-07 05:22 30.62045 -81.97849 5095 ft 255 kts 161°
2026-05-07 05:23 30.60415 -81.97037 5041 ft 255 kts 161°
2026-05-07 05:23 30.58784 -81.96225 4959 ft 255 kts 161°
2026-05-07 05:23 30.57161 -81.95417 4790 ft 251 kts 161°
2026-05-07 05:23 30.55585 -81.94633 4673 ft 241 kts 161°
2026-05-07 05:24 30.54071 -81.93881 4533 ft 232 kts 161°
2026-05-07 05:24 30.52629 -81.93163 4454 ft 220 kts 161°
2026-05-07 05:24 30.51231 -81.92468 4129 ft 219 kts 161°
2026-05-07 05:24 30.49847 -81.91780 3793 ft 213 kts 161°
2026-05-07 05:25 30.48502 -81.91112 3489 ft 207 kts 161°
2026-05-07 05:25 30.47207 -81.90469 3258 ft 197 kts 161°
2026-05-07 05:25 30.45964 -81.89850 3086 ft 193 kts 159°
2026-05-07 05:25 30.44916 -81.88868 2836 ft 200 kts 127°
2026-05-07 05:26 30.44504 -81.87331 2693 ft 207 kts 92°
2026-05-07 05:26 30.44824 -81.85708 2690 ft 206 kts 73°
2026-05-07 05:26 30.45294 -81.84163 2490 ft 195 kts 73°
2026-05-07 05:26 30.45724 -81.82753 2283 ft 184 kts 73°
2026-05-07 05:27 30.46128 -81.81428 2061 ft 166 kts 73°
2026-05-07 05:27 30.46507 -81.80188 1824 ft 160 kts 73°
2026-05-07 05:27 30.46876 -81.78980 1609 ft 158 kts 73°
2026-05-07 05:27 30.47242 -81.77781 1403 ft 157 kts 73°
2026-05-07 05:28 30.47605 -81.76595 1204 ft 155 kts 73°
2026-05-07 05:28 30.47963 -81.75419 1007 ft 154 kts 73°
2026-05-07 05:28 30.48317 -81.74264 806 ft 151 kts 73°
2026-05-07 05:28 30.48663 -81.73129 632 ft 148 kts 72°
2026-05-07 05:29 30.48998 -81.72012 404 ft 146 kts 72°
2026-05-07 05:29 30.49334 -81.70910 170 ft 145 kts 64°
2026-05-07 05:29 30.49689 -81.69778 59 ft 158 kts 67°
2026-05-07 05:29 30.50046 -81.68609 41 ft 140 kts 71°
2026-05-07 05:30 30.50305 -81.67793 37 ft 74 kts 69°
2026-05-07 05:30 30.50416 -81.67433 33 ft 24 kts 76°
2026-05-07 05:30 30.50471 -81.67226 34 ft 28 kts 75°
2026-05-07 05:30 30.50398 -81.67110 36 ft 20 kts 165°
2026-05-07 05:31 30.50300 -81.67206 34 ft 22 kts 250°
2026-05-07 05:31 30.50248 -81.67378 34 ft 23 kts 248°
2026-05-07 05:31 30.50191 -81.67556 34 ft 24 kts 250°
2026-05-07 05:31 30.50136 -81.67741 38 ft 24 kts 252°
2026-05-07 05:32 30.50083 -81.67920 41 ft 24 kts 251°
2026-05-07 05:32 30.50027 -81.68105 41 ft 25 kts 251°
2026-05-07 05:32 30.49970 -81.68282 39 ft 25 kts 250°
2026-05-07 05:32 30.49912 -81.68422 38 ft 18 kts 219°
2026-05-07 05:33 30.49788 -81.68464 38 ft 20 kts 191°
2026-05-07 05:33 30.49648 -81.68494 38 ft 21 kts 189°
2026-05-07 05:33 30.49503 -81.68517 40 ft 17 kts 180°
2026-05-07 05:33 30.49454 -81.68513 41 ft 0 kts 174°
2026-05-07 05:34 30.49450 -81.68513 41 ft 0 kts 175°